Charleston, WV

10:56 PM EST on December 10, 2019 (GMT -0500)
Yeager Airport

Weather History for KCRW - November, 2019

Change the Weather History Date:

Thursday, November 14, 2019

  Actual Average Record
Temperature  
Mean Temperature 34 °F 48 °F  
Max Temperature 49 °F 58 °F 85 °F (1993)
Min Temperature 19 °F 37 °F 13 °F (1986)
Degree Days  
Heating Degree Days 31 18  
Month to date heating degree days 348 216  
Since 1 July heating degree days 530 556  
Cooling Degree Days 0 0  
Month to date cooling degree days 0 0  
Year to date cooling degree days 1514 1094  
Moisture  
Dew Point 20 °F    
Average Humidity 62    
Maximum Humidity 92    
Minimum Humidity 31    
Precipitation  
Precipitation 0.00 in 0.13 in 0.88 in (1945)
Month to date precipitation 0.79 1.68  
Year to date precipitation 39.99 38.71  
Snow  
Snow 0.00 in 0.00 in 4.00 in (1969)
Month to date snowfall 1.5 0.3  
Since 1 September snowfall 1.5 0.4  
Snow Depth T in    
Sea Level Pressure  
Sea Level Pressure 30.29 in    
Wind  
Wind Speed 2 mph (SW)    
Max Wind Speed 16 mph    
Max Gust Speed 21 mph    
Visibility 10 miles    
Events      
T = Trace of Precipitation, MM = Missing Value Source: NWS Daily Summary

Daily Weather History Graph

Daily Weather History Graph

Search for Another Location

Airport or City:

Astronomy

Nov. 14, 2019 Rise Set
Actual Time 7:06 AM EST 5:14 PM EST
Civil Twilight 6:38 AM EST 5:42 PM EST
Nautical Twilight 6:06 AM EST 6:14 PM EST
Astronomical Twilight 5:35 AM EST 6:45 PM EST
Moon 7:00 PM EST (11/14) 8:59 AM EST (11/14)
Length of Visible Light 11h 04m
Length of Day
10h 08m
Waning Gibbous, 95% of the Moon is Illuminated
Nov 14
Waning Gibbous
Nov 19
Last Quarter
Nov 26
New
Dec 4
First Quarter
Dec 12
Full

Hourly Weather History & Observations

Time (EST) Temp. Windchill Dew Point Humidity Pressure Visibility Wind Dir Wind Speed Gust Speed Precip Events Conditions
12:54 AM 21.0 °F - 18.0 °F 88% 30.24 in 10.0 mi Calm Calm - N/A   Clear
1:54 AM 19.9 °F - 17.1 °F 89% 30.25 in 10.0 mi Calm Calm - N/A   Clear
2:54 AM 19.9 °F - 17.1 °F 89% 30.25 in 10.0 mi Calm Calm - N/A   Clear
3:54 AM 19.9 °F - 16.0 °F 85% 30.26 in 10.0 mi Calm Calm - N/A   Clear
4:54 AM 19.0 °F 13.9 °F 16.0 °F 88% 30.29 in 10.0 mi SE 3.5 mph - N/A   Clear
5:54 AM 19.0 °F - 16.0 °F 88% 30.31 in 10.0 mi Calm Calm - N/A   Clear
6:54 AM 19.9 °F - 17.1 °F 89% 30.32 in 10.0 mi Calm Calm - N/A   Partly Cloudy
7:54 AM 19.9 °F - 17.1 °F 89% 30.34 in 10.0 mi Calm Calm - N/A   Scattered Clouds
8:54 AM 25.0 °F - 19.9 °F 81% 30.34 in 10.0 mi Calm Calm - N/A   Scattered Clouds
9:54 AM 30.9 °F - 24.1 °F 76% 30.34 in 10.0 mi Calm Calm - 0.00 in   Mostly Cloudy
10:54 AM 39.0 °F - 24.1 °F 55% 30.33 in 10.0 mi Calm Calm - N/A   Scattered Clouds
11:54 AM 45.0 °F 39.3 °F 19.9 °F 37% 30.30 in 10.0 mi SW 11.5 mph 18.4 mph N/A   Scattered Clouds
12:54 PM 46.0 °F 42.5 °F 21.0 °F 37% 30.28 in 10.0 mi WSW 6.9 mph - N/A   Scattered Clouds
1:54 PM 46.9 °F - 21.0 °F 36% 30.27 in 10.0 mi WSW 6.9 mph - N/A   Scattered Clouds
2:54 PM 48.0 °F - 21.0 °F 34% 30.26 in 10.0 mi SW 8.1 mph - N/A   Scattered Clouds
3:54 PM 48.0 °F - 19.9 °F 33% 30.26 in 10.0 mi Variable 3.5 mph - N/A   Scattered Clouds
4:54 PM 46.0 °F 44.8 °F 21.0 °F 37% 30.26 in 10.0 mi WSW 3.5 mph - N/A   Scattered Clouds
5:54 PM 43.0 °F - 21.0 °F 42% 30.28 in 10.0 mi Calm Calm - N/A   Scattered Clouds
6:54 PM 39.0 °F - 23.0 °F 53% 30.29 in 10.0 mi Calm Calm - N/A   Partly Cloudy
7:54 PM 36.0 °F - 21.9 °F 57% 30.31 in 10.0 mi Calm Calm - N/A   Partly Cloudy
8:54 PM 33.1 °F - 23.0 °F 66% 30.31 in 10.0 mi Calm Calm - N/A   Clear
10:54 PM 30.0 °F - 24.1 °F 79% 30.32 in 10.0 mi Calm Calm - N/A   Clear
11:54 PM 28.0 °F - 24.1 °F 85% 30.32 in 10.0 mi Calm Calm - N/A   Clear